Regional Weather Roundup
Issued by NWS

Home | Current Version | Previous Version | Graphics & Text | Print | Product List | Glossary On
Versions: 1 2 3 4 5 6 7 8 9 10 11 12 13 14 15 16 17 18 19 20 21 22 23 24 25 26 27 28 29 30 31 32 33 34 35 36 37 38 39 40 41 42 43 44 45 46 47 48 49 50
000
ASUS45 KCYS 180510
RWRWY

WYOMING REGIONAL WEATHER ROUNDUP
NATIONAL WEATHER SERVICE CHEYENNE WY
1000 PM MST SUN DEC 17 2017

NOTE:  "FAIR" INDICATES FEW OR NO CLOUDS BELOW 12,000 FEET
WITH NO SIGNIFICANT WEATHER AND/OR OBSTRUCTIONS TO VISIBILITY.

WYZ001-180600-
YELLOWSTONE NATIONAL PARK

CITY           SKY/WX    TMP DP  RH WIND       PRES   REMARKS
LK YELLOWSTONE   N/A     13  11  92 CALM      30.09F
W YELLOWSTONE  NOT AVBL

$$
WYZ002>013-054>058-071-098>099-180600-
NORTHERN WYOMING

CITY           SKY/WX    TMP DP  RH WIND       PRES   REMARKS
JACKSON        CLOUDY    22  15  75 S14       30.14S WCI   9
CODY           MOCLDY    33  19  56 W8        29.91S WCI  26
GREYBULL       FAIR      16  15  96 S5        29.97S WCI   9
WORLAND        FAIR      11   9  92 CALM      29.97R
SHERIDAN       FAIR      14  12  92 S7        29.86S WCI   4
BUFFALO        FAIR      28  13  53 SW3       29.87R
GILLETTE       FAIR      27  14  58 S8        29.87S WCI  19
HULETT         FAIR      30  19  64 SW12      29.87R WCI  21
NEWCASTLE      FAIR      19  16  86 N9        29.91S WCI   9

$$
WYZ014>020-022>026-101>103-180600-
CENTRAL WYOMING

CITY           SKY/WX    TMP DP  RH WIND       PRES   REMARKS
BIG PINEY      MOCLDY    19  13  77 N10       30.10R WCI   7
PINEDALE       FAIR      19  12  73 NW15G21   30.08R WCI   5
DUBOIS         CLOUDY    27  18  69 N17G24    29.98F WCI  14
LANDER         FAIR      17  11  77 SE5       29.94R WCI  10
RIVERTON       FAIR      21  15  78 SW8       29.95S WCI  11
CASPER         FAIR      28  17  63 SW16      29.94R WCI  16
DOUGLAS        FAIR      27  16  63 W3        29.91R

$$
WYZ021-027>030-104>119-180600-
SOUTHERN WYOMING

CITY           SKY/WX    TMP DP  RH WIND       PRES   REMARKS
EVANSTON       MOCLDY    18  15  88 W9        30.16R WCI   7
FORT BRIDGER   FAIR      21  16  79 W18       30.16S WCI   7
ROCK SPRINGS   FAIR      21  13  71 SW21      30.09S WCI   5
DIXON          FAIR      22  16  78 SE3       30.16R
RAWLINS        FAIR      23  13  65 W14       30.06R WCI  11
LARAMIE        FAIR      25  13  60 SW20      29.94R WCI  11
CHEYENNE       FAIR      26  22  84 SW13      29.91F WCI  15
TORRINGTON     FAIR      22  11  62 NW3       29.90S
PINE BLUFFS    FAIR      19  18  93 SW3       29.93F

$$



USA.gov is the U.S. government's official web portal to all federal, state and local government web resources and services.